Starlink 34641

operational
NORAD ID: 64797 Int'l Des: 2025-150 Owner: SPXS Country: US Constellation: starlink
LEOCIRCULAR

Über Starlink 34641

Beschreibung wird geladen...

Live-Position

3D-Globus wird geladen...

Nächste Überflüge

Höhenverlauf

Altitude vs Time

uPlot chart will show altitude changes over time

Zweizeiliger Elementsatz

1 64797U 25150H 25340.52753601 .00071031 00000-0 16103-2 0 9994
2 64797 70.0004 10.4768 0002934 272.3814 87.7032 15.42717339 23360
Epoch: 6. Dez. 2025 • Age: 19 hours

Aktueller Status

Höhe 443.6 km
Geschwindigkeit 7.65 km/s
Subsatellitenpunkt 36.97°N, 164.74°W
Startdatum 16. Juli 2025
Alter 0.3 years
Typ internet

Technische Details

Klassifizierung Payload
Masse 575.00 kg
Trockenmasse 530.00 kg
Gesamtmasse 575.00 kg
Länge 0.30 m
Durchmesser 4.10 m
Spannweite 29.00 m
Form Box + pan
Hersteller SPXS
Bus-Typ Starlink V2MO
Phasenstatus In Orbit
Besitzer/Staat SPXS/US

Große Konstellationen

Loading constellations...